Tracking 19293 objects as of 21-Nov-2018
HD Live streaming from Space Station
objects crossing your sky now

OPS 9324 (IDSCS 11)

Track OPS 9324 (IDSCS 11) now!
OPS 9324 (IDSCS 11) is classified as:


NORAD ID: 2651
Int'l Code: 1967-003D
Perigee: 33,596.4 km
Apogee: 33,866.5 km
Inclination: 3.3 °
Period: 1,332.0 minutes
Semi major axis: 40102 km
RCS: 0.1995 m2 (medium)
Launch date: January 18, 1967
Source: United States (US)
Launch site: AIR FORCE EASTERN TEST RANGE (AFETR)
aabbcc
Your satellite tracking list
Your tracking list is empty




NASA's NSSDC Master Catalog

Two Line Element Set (TLE):
1  2651U 67003D   18323.17141219 -.00000081  00000-0  00000+0 0  9992
2  2651   3.2817  57.7500 0033681  28.1831 336.4317  1.08105169110386
Source of the keplerian elements: AFSPC